User: anonymous
Location: Unspecified
(0.0000°N, 0.0000°E)
Time: 21:14:03
(UTC+02:00)
Language:

Meteor 2-8 Rocket - Orbit

View from above orbital plane
View from above orbital plane
View from above satellite
View from above satellite

Ground track
Ground track

The orbit data is extracted from the following two-line orbital elements,

1 13114U 82025B   14206.96906622  .00000051  00000-0  32420-4 0  4514
2 13114 082.5430 323.9839 0013622 235.6675 261.5026 13.84626907634101
Epoch (UTC): 25 July 2014 23:15:27
Eccentricity: 0.0013622
inclination: 82.5430°
perigee height: 937 km
apogee height: 957 km
right ascension of ascending node: 323.9839°
argument of perigee: 235.6675°
revolutions per day: 13.84626907
mean anomaly at epoch: 261.5026°
orbit number at epoch: 63410

The dashed part of the orbit path shows where the satellite is in the earth's shadow,  

DLR